#timestamp,LO_Frequency,Hit,StdDev 
1582516815.6,286047002.1,N
1582516835.5,286047001.6,N
1582516855.3,286047001.4,N
1582516875.2,286047004.4,N
1582516895.9,286047001.0,N
1582516915.7,286046999.8,N
1582516935.6,286046999.9,N
1582516955.4,286047002.6,N
1582516975.3,286047001.4,N
1582516995.1,286047000.2,N
1582516996.0,286047000.2,N
1582517015.8,286047002.8,N
1582517035.7,286046999.8,N
1582517055.5,286047000.1,N
1582517075.3,286046999.7,N
1582517095.2,286047000.4,N
1582517115.0,286047002.4,N
1582517115.9,286047002.4,N
1582517135.8,286046998.7,N
1582517155.6,286046998.6,N
1582517175.4,286046998.2,N
1582517195.3,286047000.2,N
1582517215.1,286047002.0,N
1582517235.9,286046999.9,N
1582517255.7,286047002.4,N
1582517275.5,286047002.3,N
1582517295.4,286047002.7,N
1582517315.2,286047002.6,N
1582517335.0,286047002.8,N
1582517335.9,286047002.8,N
1582517355.8,286047001.9,N
1582517375.6,286047002.5,N
1582517395.5,286047002.3,N
1582517415.3,286046999.7,N
1582517435.1,286046999.7,N
1582517455.9,286047000.2,N
1582517475.7,286047002.7,N
1582517495.6,286047004.0,N
1582517515.4,286047003.3,N
1582517535.2,286047001.8,N
1582517555.1,286047001.4,N
1582517556.0,286047001.4,N
1582517575.8,286047001.1,N
1582517595.7,286046999.9,N
1582517615.5,286046999.9,N
1582517635.3,286047000.0,N
1582517655.2,286047001.2,N
1582517675.0,286047002.4,N
1582517675.9,286047002.4,N
1582517695.7,286047002.0,N
1582517715.6,286047002.4,N
1582517735.4,286047001.4,N
1582517755.3,286047003.8,Y
1582517775.1,286046999.8,P
1582517795.8,286047000.2,N
1582517815.7,286047000.7,N
1582517835.5,286046999.7,N
1582517855.4,286047000.8,N
1582517875.2,286046999.9,N
1582517895.0,286046998.8,N
1582517895.9,286046998.8,N
1582517915.8,286046998.8,N
1582517935.6,286046998.9,N
1582517955.4,286047000.1,N
1582517975.3,286046998.4,N
1582517995.1,286047001.2,N
1582518015.9,286046998.1,N
1582518035.7,286047001.2,N
1582518055.5,286047001.3,N
1582518075.4,286047002.3,N
1582518095.2,286047003.9,Y
1582518115.1,286047002.7,P
1582518116.0,286047002.7,N
1582518135.8,286047003.8,P
1582518155.6,286047001.5,N
1582518175.5,286047000.6,N
1582518195.3,286047002.6,N
1582518215.1,286046998.7,N
1582518235.9,286046999.8,N
1582518255.7,286047000.4,N
1582518275.6,286046998.9,N
1582518295.4,286047000.6,N
1582518315.2,286047002.2,N
1582518335.1,286047000.1,N
1582518336.0,286047000.1,N
1582518355.8,286047001.7,N
1582518375.6,286047002.4,N
1582518395.5,286047002.7,N
1582518415.3,286047001.9,N
1582518435.2,286047002.3,N
1582518455.9,286047001.7,N
1582518475.7,286047003.1,N
1582518495.6,286047002.8,N
1582518515.4,286047004.2,Y
1582518535.3,286047000.3,P
1582518555.1,286047001.1,N
1582518556.0,286047001.1,N
1582518575.8,286047001.1,N
1582518595.7,286046996.9,Y
1582518615.5,286046998.9,P
1582518635.4,286046997.1,N
1582518655.2,286046996.5,N
1582518675.0,286046999.5,N
1582518675.9,286046999.5,N
1582518695.8,286046996.8,N
1582518715.6,286046999.3,N
1582518735.5,286047011.9,Y
1582518755.3,286047000.5,P
1582518775.1,286047000.5,N
1582518795.9,286046999.3,N
1582518815.7,286046994.9,Y
1582518835.5,286046991.7,P
1582518855.4,286046992.8,N
1582518875.2,286046993.0,N
1582518895.1,286046991.6,N
1582518896.0,286046991.6,N
1582518915.8,286046990.5,Y
1582518935.6,286046996.5,P
1582518955.5,286047001.0,N
1582518975.3,286047002.3,N
1582518995.2,286047002.7,N
1582519015.9,286047002.4,N
1582519035.7,286047000.1,N
1582519055.6,286047000.6,N
1582519075.4,286046999.9,N
1582519095.2,286047000.1,N
1582519115.1,286047000.0,N
1582519116.0,286047000.0,N
1582519135.8,286047004.4,N
1582519155.7,286047004.2,N
1582519175.5,286047004.3,N
1582519195.3,286047003.5,N
1582519215.2,286047003.5,N
1582519235.0,286047004.3,N
1582519235.9,286047004.3,N
1582519255.8,286047004.2,N
1582519275.6,286047001.6,N
1582519295.4,286047002.8,N
1582519315.3,286047000.3,N
1582519335.1,286047000.3,N
1582519355.9,286047004.1,N
1582519375.7,286047001.6,N
1582519395.5,286047001.2,N
1582519415.4,286047001.1,N
1582519435.2,286047002.4,N
1582519455.0,286047000.4,N
1582519456.0,286047000.4,N
1582519475.8,286047000.6,N
1582519495.6,286046998.2,N
1582519515.5,286046999.1,N
1582519535.3,286046999.4,N
1582519555.1,286046999.0,N
1582519575.9,286046998.5,N
1582519595.7,286047001.0,N
1582519615.6,286047001.1,N
1582519635.4,286046998.9,N
1582519655.2,286046999.2,N
1582519675.1,286046998.4,N
1582519676.0,286046998.4,N
1582519695.8,286046999.2,N
1582519715.7,286046999.2,N
1582519735.5,286046999.3,N
1582519755.3,286046998.8,N
1582519775.2,286046997.8,N
1582519795.0,286046995.0,N
1582519795.9,286046995.0,N
1582519815.7,286046995.6,N
1582519835.6,286046997.8,N
1582519855.4,286046995.5,N
1582519875.3,286046995.2,N
1582519895.1,286046997.1,N
1582519915.8,286046995.4,N
1582519935.7,286046995.3,N
1582519955.5,286046999.2,N
1582519975.4,286046997.0,N
1582519995.2,286046997.8,N
1582520015.0,286046996.9,N
1582520015.9,286046996.9,N
1582520035.8,286046998.9,N
1582520055.6,286046997.6,N
1582520075.4,286046999.4,N
1582520095.3,286046996.5,N
1582520115.1,286046995.0,N
1582520135.9,286046999.5,N
1582520155.7,286046998.9,N
1582520175.5,286046999.2,N
1582520195.4,286046999.0,N
1582520215.2,286046999.3,N
1582520235.0,286046999.1,N
1582520236.0,286046999.1,N
1582520255.8,286047001.2,N
1582520275.6,286047000.6,N
1582520295.5,286046999.5,N
1582520315.3,286046994.9,N
1582520335.1,286046999.3,N
1582520355.9,286046998.6,N
1582520375.7,286047000.2,N
1582520395.6,286046999.8,N
